Weather History for Springfield, IL

Change the Weather History Date:

Wednesday, December 7, 2011

  Actual Average Record
Temperature  
Mean Temperature 32 °F 33 °F  
Max Temperature 37 °F 41 °F 67 °F (1916)
Min Temperature 27 °F 25 °F -7 °F (1882)
Degree Days  
Heating Degree Days 33 32  
Month to date heating degree days 183 216  
Since 1 July heating degree days 1093 1284  
Cooling Degree Days 0 0  
Month to date cooling degree days 0 0  
Year to date cooling degree days 1447 1122  
Moisture  
Dew Point 24 °F    
Average Humidity 70    
Maximum Humidity 92    
Minimum Humidity 47    
Precipitation  
Precipitation T in 0.10 in 1.00 in (1987)
Month to date precipitation 0.13 0.66  
Year to date precipitation 28.12 35.57  
Snow  
Snow T in 0.20 in 3.70 in (1909)
Month to date snowfall T 0.9  
Since 1 July snowfall T 1.5  
Snow Depth 0.00 in    
Sea Level Pressure  
Sea Level Pressure 30.16 in    
Wind  
Wind Speed 9 mph (West)    
Max Wind Speed 18 mph    
Max Gust Speed 22 mph    
Visibility 8 miles    
Events      
T = Trace of Precipitation, MM = Missing Value Source: NWS Daily Summary

Daily Weather History Graph

Daily Weather History Graph

Search for Another Location

Airport:

Trip Planner

Search our weather history database for the weather conditions in past years. The results will help you decide how hot, cold, wet, or windy it might be!

Date:

Astronomy

Dec. 07, 2011 Rise Set
Actual Time 7:06 AM CST 4:33 PM CST
Civil Twilight 6:36 AM CST 5:03 PM CST
Nautical Twilight 6:02 AM CST 5:37 PM CST
Astronomical Twilight 5:29 AM CST 6:10 PM CST
Moon 2:34 PM CST (12/7) 4:21 AM CST (12/7)
Length of Visible Light 10h 27m
Length of Day
9h 27m
Waxing Gibbous, 92% of the Moon is Illuminated
Dec 7
Waxing Gibbous
Dec 10
Full
Dec 17
Last Quarter
Dec 24
New
Jan 1
First Quarter

Hourly Weather History & Observations

Time (CST) Temp. Windchill Dew Point Humidity Pressure Visibility Wind Dir Wind Speed Gust Speed Precip Events Conditions
12:42 AM 33.8 °F 27.7 °F 30.2 °F 87% 30.15 in 4.0 mi WNW 6.9 mph - N/A   Overcast
12:52 AM 33.1 °F 26.9 °F 30.9 °F 92% 30.17 in 3.0 mi WNW 6.9 mph - N/A   Overcast
1:22 AM 33.8 °F 27.7 °F 30.2 °F 87% 30.14 in 2.5 mi NW 6.9 mph - N/A   Overcast
1:34 AM 32.0 °F 24.8 °F 30.2 °F 93% 30.14 in 1.2 mi NW 8.1 mph - N/A   Overcast
1:48 AM 32.0 °F 26.4 °F 30.2 °F 93% 30.14 in 2.0 mi WNW 5.8 mph - N/A   Overcast
1:49 AM 32.0 °F 26.4 °F 30.2 °F 93% 30.14 in 2.0 mi WNW 5.8 mph - N/A   Overcast
2:14 AM 32.0 °F 26.4 °F 30.2 °F 93% 30.14 in 3.0 mi NW 5.8 mph - N/A   Overcast
2:52 AM 32.0 °F 24.8 °F 30.0 °F 92% 30.15 in 5.0 mi WNW 8.1 mph - N/A   Overcast
3:52 AM 32.0 °F 25.6 °F 30.0 °F 92% 30.15 in 4.0 mi WNW 6.9 mph - N/A   Overcast
4:27 AM 32.0 °F 24.2 °F 28.4 °F 87% 30.13 in 5.0 mi NW 9.2 mph - N/A   Overcast
4:52 AM 30.9 °F 21.2 °F 27.0 °F 85% 30.14 in 10.0 mi NW 12.7 mph - N/A   Overcast
5:52 AM 30.0 °F 22.4 °F 26.1 °F 85% 30.15 in 9.0 mi NW 8.1 mph - N/A   Overcast
6:00 AM 30.2 °F 23.4 °F 26.6 °F 86% 30.13 in 10.0 mi NW 6.9 mph - N/A   Overcast
6:16 AM 30.2 °F 22.6 °F 26.6 °F 86% 30.14 in 9.0 mi WNW 8.1 mph - N/A   Overcast
6:52 AM 28.9 °F 19.2 °F 25.0 °F 85% 30.16 in 9.0 mi West 11.5 mph - N/A   Overcast
7:52 AM 28.0 °F 19.3 °F 24.1 °F 85% 30.17 in 9.0 mi WNW 9.2 mph - N/A   Overcast
8:52 AM 27.0 °F 18.0 °F 21.9 °F 81% 30.17 in 9.0 mi West 9.2 mph - N/A   Overcast
9:52 AM 28.0 °F 20.0 °F 21.0 °F 75% 30.19 in 10.0 mi WNW 8.1 mph - N/A   Mostly Cloudy
10:14 AM 28.4 °F 20.4 °F 19.4 °F 69% 30.16 in 10.0 mi West 8.1 mph - N/A   Scattered Clouds
10:52 AM 30.0 °F 20.5 °F 19.9 °F 66% 30.18 in 10.0 mi West 11.5 mph - N/A   Clear
11:52 AM 32.0 °F 22.5 °F 19.0 °F 59% 30.15 in 10.0 mi West 12.7 mph - N/A   Clear
12:52 PM 34.0 °F 25.5 °F 19.0 °F 54% 30.13 in 10.0 mi West 11.5 mph - N/A   Clear
1:52 PM 36.0 °F 26.3 °F 19.0 °F 50% 30.12 in 10.0 mi WSW 16.1 mph 19.6 mph N/A   Clear
2:52 PM 35.1 °F 25.9 °F 17.1 °F 48% 30.12 in 10.0 mi WSW 13.8 mph - N/A   Clear
3:52 PM 34.0 °F 25.0 °F 16.0 °F 48% 30.12 in 10.0 mi WSW 12.7 mph - N/A   Clear
4:52 PM 30.2 °F 21.9 °F 19.4 °F 64% 30.13 in 10.0 mi WSW 9.2 mph - N/A   Clear
5:52 PM 30.0 °F 21.7 °F 19.9 °F 66% 30.16 in 10.0 mi West 9.2 mph - N/A   Clear
6:52 PM 30.0 °F 21.7 °F 19.0 °F 64% 30.19 in 10.0 mi West 9.2 mph - N/A   Clear
7:52 PM 30.0 °F 22.4 °F 19.9 °F 66% 30.20 in 10.0 mi West 8.1 mph - N/A   Partly Cloudy
8:52 PM 28.9 °F 21.9 °F 21.0 °F 72% 30.19 in 10.0 mi WSW 6.9 mph - N/A   Clear
9:52 PM 28.0 °F 21.7 °F 21.0 °F 75% 30.19 in 10.0 mi WSW 5.8 mph - N/A   Partly Cloudy
10:52 PM 28.0 °F 24.2 °F 21.0 °F 75% 30.20 in 10.0 mi SW 3.5 mph - N/A   Scattered Clouds
11:52 PM 28.0 °F 24.2 °F 19.9 °F 72% 30.21 in 10.0 mi WSW 3.5 mph - N/A   Overcast